Weather History for Gillette, WY

Change the Weather History Date:

Sunday, November 11, 2012

  Actual Average Record
Temperature  
Mean Temperature 9 °F 35 °F  
Max Temperature 20 °F 47 °F 69 °F (1953)
Min Temperature -2 °F 23 °F -9 °F (2000)
Degree Days  
Heating Degree Days 56 30  
Month to date heating degree days 285 306  
Since 1 July heating degree days 1082 1215  
Cooling Degree Days 0 0  
Month to date cooling degree days 0 0  
Year to date cooling degree days 795 502  
Moisture  
Dew Point 6 °F    
Average Humidity 82    
Maximum Humidity 91    
Minimum Humidity 73    
Precipitation  
Precipitation 0.00 in 0.02 in 0.28 in (1978)
Month to date precipitation 0.15 0.24  
Year to date precipitation 8.62 13.18  
Sea Level Pressure  
Sea Level Pressure 30.16 in    
Wind  
Wind Speed 12 mph (West)    
Max Wind Speed 20 mph    
Max Gust Speed 24 mph    
Visibility 10 miles    
Events      
T = Trace of Precipitation, MM = Missing Value Source: NWS Daily Summary

Daily Weather History Graph

Daily Weather History Graph

Search for Another Location

Airport:

Trip Planner

Search our weather history database for the weather conditions in past years. The results will help you decide how hot, cold, wet, or windy it might be!

Date:

Astronomy

Nov. 11, 2012 Rise Set
Actual Time 6:53 AM MST 4:38 PM MST
Civil Twilight 6:22 AM MST 5:09 PM MST
Nautical Twilight 5:47 AM MST 5:44 PM MST
Astronomical Twilight 5:13 AM MST 6:18 PM MST
Moon 4:05 AM MST (11/11) 3:07 PM MST (11/11)
Length of Visible Light 10h 47m
Length of Day
9h 45m
Waning Crescent, 7% of the Moon is Illuminated
Nov 11
Waning Crescent
Nov 13
New
Nov 20
First Quarter
Nov 28
Full
Dec 6
Last Quarter

Hourly Weather History & Observations

Time (MST) Temp. Windchill Dew Point Humidity Pressure Visibility Wind Dir Wind Speed Gust Speed Precip Events Conditions
12:05 AM 3.2 °F -7.8 °F -0.4 °F 85% 29.90 in 10.0 mi West 5.8 mph - N/A   Mostly Cloudy
12:16 AM 3.2 °F -9.1 °F 1.4 °F 92% 29.90 in 10.0 mi West 6.9 mph - N/A   Partly Cloudy
12:53 AM -0.9 °F -11.0 °F -2.9 °F 91% 30.12 in 10.0 mi West 4.6 mph - N/A   Clear
1:53 AM 3.0 °F -11.5 °F 1.0 °F 91% 30.10 in 10.0 mi West 9.2 mph - N/A   Clear
2:53 AM 3.0 °F -10.5 °F -0.0 °F 87% 30.10 in 10.0 mi West 8.1 mph - N/A   Clear
3:53 AM 3.9 °F -11.3 °F 1.0 °F 88% 30.11 in 10.0 mi WSW 10.4 mph - N/A   Clear
4:53 AM 6.1 °F -10.2 °F 1.9 °F 83% 30.11 in 10.0 mi WSW 12.7 mph - N/A   Clear
5:53 AM 8.1 °F -7.0 °F 3.9 °F 83% 30.11 in 10.0 mi West 11.5 mph - N/A   Mostly Cloudy
6:53 AM 9.0 °F -5.9 °F 5.0 °F 84% 30.12 in 10.0 mi WSW 11.5 mph - N/A   Overcast
7:53 AM 10.0 °F -5.9 °F 5.0 °F 80% 30.12 in 10.0 mi WSW 13.8 mph - N/A   Overcast
8:53 AM 12.0 °F -2.0 °F 7.0 °F 80% 30.15 in 10.0 mi West 11.5 mph - N/A   Overcast
9:53 AM 14.0 °F 0.5 °F 9.0 °F 80% 30.17 in 10.0 mi West 11.5 mph - N/A   Overcast
10:53 AM 16.0 °F 0.6 °F 9.0 °F 74% 30.18 in 10.0 mi West 16.1 mph - N/A   Scattered Clouds
11:53 AM 17.1 °F 3.6 °F 10.9 °F 77% 30.18 in 10.0 mi West 12.7 mph - 0.01 in   Scattered Clouds
12:53 PM 19.0 °F 5.0 °F 12.0 °F 74% 30.18 in 10.0 mi WNW 15.0 mph - N/A   Clear
1:53 PM 19.9 °F 6.7 °F 12.0 °F 71% 30.17 in 10.0 mi WNW 13.8 mph - N/A   Clear
2:53 PM 19.9 °F 5.7 °F 12.0 °F 71% 30.19 in 10.0 mi WNW 16.1 mph - N/A   Clear
3:53 PM 18.0 °F 6.9 °F 10.9 °F 74% 30.21 in 10.0 mi WNW 9.2 mph - N/A   Clear
4:53 PM 17.1 °F 5.8 °F 10.0 °F 74% 30.22 in 10.0 mi WNW 9.2 mph - N/A   Partly Cloudy
5:53 PM 15.1 °F 2.5 °F 10.0 °F 80% 30.23 in 10.0 mi West 10.4 mph - N/A   Mostly Cloudy
6:53 PM 14.0 °F -0.2 °F 9.0 °F 80% 30.24 in 10.0 mi WSW 12.7 mph - N/A   Clear
7:53 PM 14.0 °F -0.8 °F 8.1 °F 77% 30.25 in 10.0 mi West 13.8 mph - N/A   Clear
8:53 PM 14.0 °F -0.2 °F 7.0 °F 74% 30.26 in 10.0 mi West 12.7 mph - N/A   Clear
9:53 PM 14.0 °F -0.8 °F 7.0 °F 74% 30.27 in 10.0 mi West 13.8 mph - N/A   Clear
10:53 PM 14.0 °F -0.8 °F 6.1 °F 71% 30.27 in 10.0 mi WSW 13.8 mph - N/A   Clear
11:53 PM 10.9 °F 2.9 °F 3.9 °F 73% 30.29 in 10.0 mi West 4.6 mph - N/A   Clear